TimeEST,TemperatureF,Dew PointF,Humidity,Sea Level PressureIn,VisibilityMPH,Wind Direction,Wind SpeedMPH,Gust SpeedMPH,PrecipitationIn,Events,Conditions,WindDirDegrees,DateUTC
12:54 AM,37.9,34.0,86,29.97,9.0,NNW,13.8,-,N/A,,Clear,330,2011-11-23 05:54:00
1:54 AM,37.9,34.0,86,30.00,10.0,NNW,10.4,-,N/A,,Clear,330,2011-11-23 06:54:00
2:54 AM,37.0,33.1,86,30.02,10.0,NW,4.6,-,N/A,,Clear,320,2011-11-23 07:54:00
3:54 AM,36.0,33.1,89,30.04,10.0,NNW,6.9,-,N/A,,Clear,330,2011-11-23 08:54:00
4:54 AM,35.1,33.1,92,30.07,10.0,Calm,Calm,-,N/A,,Clear,0,2011-11-23 09:54:00
5:54 AM,32.0,30.9,96,30.09,3.0,Calm,Calm,-,N/A,,Clear,0,2011-11-23 10:54:00
6:21 AM,32.0,30.2,93,30.09,2.0,Calm,Calm,-,N/A,,Clear,0,2011-11-23 11:21:00
6:54 AM,32.0,28.9,88,30.11,3.0,Calm,Calm,-,N/A,Fog,Shallow Fog,0,2011-11-23 11:54:00
7:54 AM,30.0,28.0,92,30.15,5.0,WSW,3.5,-,N/A,,Clear,250,2011-11-23 12:54:00
8:54 AM,35.1,33.1,92,30.18,6.0,Calm,Calm,-,N/A,,Clear,0,2011-11-23 13:54:00
9:54 AM,41.0,37.9,89,30.20,9.0,Calm,Calm,-,N/A,,Clear,0,2011-11-23 14:54:00
10:35 AM,44.6,39.2,81,30.19,10.0,WNW,8.1,-,N/A,,Mostly Cloudy,290,2011-11-23 15:35:00
10:54 AM,46.0,39.0,76,30.21,10.0,West,9.2,-,N/A,,Overcast,280,2011-11-23 15:54:00
11:54 AM,45.0,37.9,76,30.22,10.0,WNW,5.8,-,N/A,,Mostly Cloudy,290,2011-11-23 16:54:00
12:54 PM,46.4,39.2,76,30.20,10.0,WSW,4.6,-,N/A,,Mostly Cloudy,240,2011-11-23 17:54:00
1:54 PM,46.9,39.0,74,30.22,10.0,West,5.8,-,N/A,,Mostly Cloudy,280,2011-11-23 18:54:00
2:54 PM,44.6,37.4,76,30.19,10.0,SW,5.8,-,N/A,,Mostly Cloudy,230,2011-11-23 19:54:00
3:54 PM,44.1,39.0,82,30.22,10.0,SW,8.1,-,N/A,,Overcast,220,2011-11-23 20:54:00
4:54 PM,44.1,37.9,79,30.23,8.0,SW,6.9,-,N/A,,Overcast,230,2011-11-23 21:54:00
5:38 PM,41.0,37.4,87,30.21,8.0,South,5.8,-,N/A,,Scattered Clouds,190,2011-11-23 22:38:00
5:54 PM,39.9,36.0,86,30.24,8.0,SSW,3.5,-,N/A,,Scattered Clouds,210,2011-11-23 22:54:00
6:54 PM,37.9,35.1,89,30.24,5.0,Calm,Calm,-,N/A,,Clear,0,2011-11-23 23:54:00
7:54 PM,36.0,34.0,93,30.24,3.0,SSW,4.6,-,N/A,,Clear,210,2011-11-24 00:54:00
8:06 PM,33.8,30.2,87,30.22,2.5,Calm,Calm,-,N/A,,Clear,0,2011-11-24 01:06:00
8:54 PM,37.0,34.0,89,30.25,3.0,SSW,3.5,-,N/A,,Clear,200,2011-11-24 01:54:00
9:54 PM,35.6,33.8,93,30.23,3.0,SSW,3.5,-,N/A,,Clear,210,2011-11-24 02:54:00
10:54 PM,36.0,33.1,89,30.27,4.0,Calm,Calm,-,N/A,,Clear,0,2011-11-24 03:54:00
11:54 PM,34.0,32.0,92,30.26,4.0,SSW,8.1,-,N/A,,Clear,200,2011-11-24 04:54:00